Location: Caltech
(34.1382°N, 118.1253°W)
Time: 12:21:26
(UTC-07:00)

ERBS - Visible Passes

Search period start: 20 June 2018 00:00
Search period end: 30 June 2018 00:00
Orbit: 417 x 439 km, 57.0° (Epoch: 19 June)

Date Brightness Start Highest point End Pass type
(mag) Time Alt. Az. Time Alt. Az. Time Alt. Az.
27 Jun 3.5 05:00:37 10° SSW 05:03:47 37° SE 05:06:55 10° NE visible
28 Jun 4.4 04:17:38 12° SSE 04:19:43 19° ESE 04:22:14 10° ENE visible
29 Jun 5.1 03:35:17 10° SE 03:35:42 10° ESE 03:36:08 10° ESE visible
29 Jun 2.9 05:08:34 10° WSW 05:11:50 45° NW 05:15:05 10° NNE visible
